TimeCDT,TemperatureF,Dew PointF,Humidity,Sea Level PressureIn,VisibilityMPH,Wind Direction,Wind SpeedMPH,Gust SpeedMPH,PrecipitationIn,Events,Conditions,WindDirDegrees,DateUTC
12:53 AM,64.9,60.1,84,30.04,10.0,Calm,Calm,-,N/A,,Scattered Clouds,0,2013-06-09 05:53:00
1:53 AM,64.0,60.1,87,30.04,10.0,Calm,Calm,-,N/A,,Mostly Cloudy,0,2013-06-09 06:53:00
2:53 AM,63.0,60.1,90,30.02,9.0,Calm,Calm,-,N/A,,Partly Cloudy,0,2013-06-09 07:53:00
3:53 AM,62.1,60.1,93,30.02,3.0,Calm,Calm,-,N/A,,Clear,0,2013-06-09 08:53:00
3:58 AM,62.6,60.8,94,30.04,1.8,Calm,Calm,-,N/A,,Clear,0,2013-06-09 08:58:00
4:07 AM,60.8,59.0,94,30.04,1.0,Calm,Calm,-,N/A,,Clear,0,2013-06-09 09:07:00
4:15 AM,60.8,57.2,88,30.04,2.0,Calm,Calm,-,N/A,,Clear,0,2013-06-09 09:15:00
4:29 AM,60.8,57.2,88,30.04,8.0,Calm,Calm,-,N/A,,Clear,0,2013-06-09 09:29:00
4:40 AM,62.6,59.0,88,30.04,1.8,Calm,Calm,-,N/A,,Partly Cloudy,0,2013-06-09 09:40:00
4:48 AM,62.6,59.0,88,30.04,3.0,Calm,Calm,-,N/A,,Partly Cloudy,0,2013-06-09 09:48:00
4:53 AM,62.1,59.0,90,30.03,2.5,Calm,Calm,-,N/A,,Scattered Clouds,0,2013-06-09 09:53:00
5:21 AM,60.8,57.2,88,30.04,1.0,Calm,Calm,-,N/A,,Scattered Clouds,0,2013-06-09 10:21:00
5:29 AM,60.8,57.2,88,30.04,0.8,Calm,Calm,-,N/A,,Partly Cloudy,0,2013-06-09 10:29:00
5:31 AM,60.8,57.2,88,30.04,1.8,Calm,Calm,-,N/A,,Partly Cloudy,0,2013-06-09 10:31:00
5:33 AM,60.8,57.2,88,30.04,4.0,Calm,Calm,-,N/A,,Partly Cloudy,0,2013-06-09 10:33:00
5:53 AM,61.0,59.0,93,30.04,3.0,Calm,Calm,-,N/A,,Mostly Cloudy,0,2013-06-09 10:53:00
6:53 AM,64.9,62.1,90,30.02,8.0,Calm,Calm,-,N/A,,Partly Cloudy,0,2013-06-09 11:53:00
7:53 AM,70.0,63.0,78,30.03,10.0,ESE,3.5,-,N/A,,Mostly Cloudy,120,2013-06-09 12:53:00
8:53 AM,73.0,62.1,68,30.04,10.0,SSE,8.1,-,N/A,,Mostly Cloudy,160,2013-06-09 13:53:00
9:53 AM,70.0,64.9,84,30.02,10.0,SE,4.6,-,0.10,Rain,Light Rain,130,2013-06-09 14:53:00
10:53 AM,71.1,64.9,81,30.05,10.0,SSW,8.1,-,0.00,,Mostly Cloudy,210,2013-06-09 15:53:00
10:59 AM,69.8,64.4,83,30.05,2.5,SW,8.1,-,0.12,Rain-Thunderstorm,Heavy Thunderstorms and Rain,220,2013-06-09 15:59:00
11:04 AM,69.8,64.4,83,30.05,1.2,SSW,8.1,-,0.20,Rain-Thunderstorm,Heavy Thunderstorms and Rain,200,2013-06-09 16:04:00
11:10 AM,69.8,64.4,83,30.05,2.0,South,4.6,-,0.24,Rain,Rain,190,2013-06-09 16:10:00
11:18 AM,69.8,66.2,88,30.04,7.0,SSW,5.8,-,0.24,Rain,Light Rain,200,2013-06-09 16:18:00
11:53 AM,71.1,66.9,87,30.02,10.0,SE,6.9,-,0.24,Rain,Light Rain,130,2013-06-09 16:53:00
12:53 PM,73.9,66.9,79,30.01,10.0,ESE,4.6,-,0.00,,Scattered Clouds,120,2013-06-09 17:53:00
1:53 PM,75.9,66.9,74,29.96,10.0,SSE,8.1,16.1,N/A,,Scattered Clouds,150,2013-06-09 18:53:00
2:53 PM,80.1,68.0,67,29.94,10.0,SSE,10.4,-,N/A,,Scattered Clouds,150,2013-06-09 19:53:00
3:44 PM,80.6,68.0,65,29.94,10.0,SE,9.2,-,N/A,,Mostly Cloudy,140,2013-06-09 20:44:00
3:53 PM,81.0,69.1,67,29.92,10.0,SE,10.4,-,N/A,,Mostly Cloudy,130,2013-06-09 20:53:00
4:07 PM,80.6,69.8,70,29.92,10.0,SSE,10.4,16.1,N/A,,Scattered Clouds,150,2013-06-09 21:07:00
4:53 PM,81.0,68.0,65,29.89,10.0,SE,9.2,-,N/A,,Partly Cloudy,140,2013-06-09 21:53:00
5:53 PM,79.0,68.0,69,29.89,10.0,SE,11.5,-,N/A,,Scattered Clouds,130,2013-06-09 22:53:00
6:53 PM,78.1,68.0,71,29.89,10.0,SE,11.5,-,0.00,Rain,Light Rain,140,2013-06-09 23:53:00
7:53 PM,73.0,68.0,84,29.88,10.0,ESE,6.9,-,0.00,,Partly Cloudy,120,2013-06-10 00:53:00
8:53 PM,73.0,68.0,84,29.87,10.0,SE,6.9,-,N/A,,Clear,130,2013-06-10 01:53:00
9:50 PM,73.4,66.2,78,29.91,10.0,SE,5.8,-,N/A,Thunderstorm,Mostly Cloudy,130,2013-06-10 02:50:00
9:53 PM,73.0,66.9,81,29.90,10.0,SSE,4.6,-,N/A,Thunderstorm,Mostly Cloudy,150,2013-06-10 02:53:00
10:13 PM,71.6,64.4,78,29.93,10.0,WNW,5.8,-,N/A,,Mostly Cloudy,290,2013-06-10 03:13:00
10:53 PM,70.0,64.0,81,29.90,10.0,Calm,Calm,-,N/A,,Overcast,0,2013-06-10 03:53:00
11:51 PM,69.8,66.2,88,29.91,10.0,South,5.8,-,0.22,Rain,Light Rain,190,2013-06-10 04:51:00
11:53 PM,68.0,66.0,93,29.89,10.0,SSW,5.8,-,0.22,,Overcast,200,2013-06-10 04:53:00